Weather History for Henderson, NV

Change the Weather History Date:

Friday, May 9, 2014

  Actual Average (KLAS) Record (KLAS)
Temperature  
Mean Temperature 74 °F 75 °F  
Max Temperature 84 °F 87 °F 100 °F (2001)
Min Temperature 63 °F 64 °F 42 °F (1938)
Degree Days  
Heating Degree Days 0 0  
Month to date heating degree days 4  
Since 1 July heating degree days 1947  
Cooling Degree Days 8 10  
Month to date cooling degree days 83  
Year to date cooling degree days 243  
Growing Degree Days 24 (Base 50)    
Moisture  
Dew Point 31 °F    
Average Humidity 21    
Maximum Humidity 29    
Minimum Humidity 14    
Precipitation  
Precipitation 0.00 in 0.01 in 0.15 in (1977)
Month to date precipitation 0.04  
Year to date precipitation 1.93  
Snow  
Snow 0.00 in 0.00 in 0.00 in ()
Month to date snowfall 0.0  
Since 1 July snowfall 0.3  
Snow Depth -    
Sea Level Pressure  
Sea Level Pressure 29.83 in    
Wind  
Wind Speed 15 mph (SSW)    
Max Wind Speed 20 mph    
Max Gust Speed 24 mph    
Visibility 10 miles    
Events      
T = Trace of Precipitation, MM = Missing Value Source: NWS Daily Summary

Daily Weather History Graph

Daily Weather History Graph

Search for Another Location

Airport:

Trip Planner

Search our weather history database for the weather conditions in past years. The results will help you decide how hot, cold, wet, or windy it might be!

Date:

Astronomy

May. 09, 2014 Rise Set
Actual Time 5:39 AM PDT 7:34 PM PDT
Civil Twilight 5:11 AM PDT 8:02 PM PDT
Nautical Twilight 4:37 AM PDT 8:36 PM PDT
Astronomical Twilight 4:01 AM PDT 9:13 PM PDT
Moon 2:45 PM PDT (5/9) 2:34 AM PDT (5/9)
Length of Visible Light 14h 50m
Length of Day
13h 54m
Waxing Gibbous, 74% of the Moon is Illuminated
May 9
Waxing Gibbous
May 14
Full
May 21
Last Quarter
May 28
New
Jun 5
First Quarter

Hourly Weather History & Observations

Time (PDT) Temp. Dew Point Humidity Pressure Visibility Wind Dir Wind Speed Gust Speed Precip Events Conditions
12:56 AM 68.9 °F 24.1 °F 18% 29.88 in 10.0 mi SSW 16.1 mph - N/A   Clear
1:56 AM 65.8 °F 25.2 °F 21% 29.87 in 10.0 mi SSW 13.8 mph - N/A   Clear
2:56 AM 64.9 °F 25.2 °F 22% 29.86 in 10.0 mi South 13.8 mph - N/A   Clear
3:56 AM 63.9 °F 28.0 °F 26% 29.85 in 10.0 mi SSE 16.1 mph - N/A   Clear
4:56 AM 63.0 °F 29.1 °F 28% 29.85 in 10.0 mi SSE 12.7 mph - N/A   Clear
5:56 AM 63.9 °F 31.1 °F 29% 29.85 in 10.0 mi South 19.6 mph 24.2 mph N/A   Clear
6:56 AM 64.9 °F 31.1 °F 28% 29.88 in 10.0 mi South 15.0 mph - N/A   Clear
7:56 AM 68.0 °F 32.0 °F 26% 29.88 in 10.0 mi SW 17.3 mph - N/A   Clear
8:56 AM 70.0 °F 32.0 °F 25% 29.90 in 10.0 mi SSW 15.0 mph - N/A   Clear
9:56 AM 72.9 °F 32.9 °F 23% 29.90 in 10.0 mi SSW 11.5 mph - N/A   Clear
10:56 AM 74.8 °F 32.9 °F 22% 29.90 in 10.0 mi South 8.1 mph - N/A   Clear
11:56 AM 77.9 °F 32.9 °F 19% 29.88 in 10.0 mi SSW 15.0 mph - N/A   Clear
12:56 PM 81.9 °F 32.9 °F 17% 29.86 in 10.0 mi SSW 13.8 mph - N/A   Clear
1:56 PM 82.9 °F 32.9 °F 16% 29.83 in 10.0 mi SW 13.8 mph 21.9 mph N/A   Clear
2:56 PM 83.8 °F 32.9 °F 16% 29.80 in 10.0 mi SSW 13.8 mph 20.7 mph N/A   Clear
3:56 PM 84.9 °F 32.0 °F 15% 29.77 in 10.0 mi South 17.3 mph 23.0 mph N/A   Clear
4:56 PM 84.9 °F 30.0 °F 14% 29.76 in 10.0 mi West 12.7 mph 24.2 mph N/A   Clear
5:56 PM 83.8 °F 30.0 °F 14% 29.75 in 10.0 mi SSW 17.3 mph 24.2 mph N/A   Clear
6:56 PM 81.9 °F 32.0 °F 16% 29.75 in 10.0 mi SW 17.3 mph - N/A   Clear
7:56 PM 79.0 °F 32.9 °F 19% 29.76 in 10.0 mi SW 15.0 mph - N/A   Clear
8:56 PM 75.9 °F 34.0 °F 22% 29.78 in 10.0 mi SSW 17.3 mph - N/A   Clear
9:56 PM 72.9 °F 31.1 °F 21% 29.79 in 10.0 mi South 11.5 mph - N/A   Clear
10:56 PM 70.9 °F 31.1 °F 23% 29.78 in 10.0 mi South 11.5 mph - N/A   Clear
11:56 PM 70.0 °F 32.0 °F 25% 29.78 in 10.0 mi SSW 12.7 mph - N/A   Clear